sat.trackr.live / text

‹ back to catalog

YAOGAN-35 03A

NORAD 53316 · 2022-088A

PAYLOAD ACTIVE UNKNOWN

§ Identity

Operator
Country
PRC
Launch date
2022-07-29
Launch site
XICLF
Launch vehicle
Mass (kg)
RCS (m²)

External: N2YO · Heavens-Above · Gunter

§ Orbital elements

Epoch: 2026-05-25T05:36:34.396416Z

Period
91.11 min
Inclination
35.0078°
Eccentricity
0.0011594
Mean motion
15.80548120 rev/d
Perigee alt
321.1 km
Apogee alt
336.7 km
Semi-major
6,707.0 km
B*
9.2496e-4
RAAN
196.4523°
Arg perigee
191.7060°
Mean anomaly
168.3404°
Rev number
21,446

§ Raw data

YAOGAN-35 03A1 53316U 22088A   26145.23373144  .00188092  00000+0  92496-3 0  99932 53316  35.0078 196.4523 0011594 191.7060 168.3404 15.80548120214464

JSON: /api/v1/satellites/53316 · /tle

For live sub-satellite position, see the globe view (requires WebGL).

§ Visibility from observer

Set your observer location to see the next 7 days of passes ≥ 10°. The values pass through the URL so the page stays shareable.

No JS? Fill the form by hand. The geolocation button needs JavaScript.